CW7858 Weather Reports


Display with metric or nautical units.
time (UTC)temp
F
wind
direction
speed
MPH
gust
MPH
rain 1hr
in
rain 24hr
in
rain mn
in
humidity
%
barometer
mb
20180222144239 59 20 5.0 9.0 0.00 0.00 0.00 22 1000.9
20180222143232 59 301 4.0 14.0 0.00 0.00 0.00 22 1000.9
20180222142242 59 330 4.0 10.0 0.00 0.00 0.00 25 1001.0
20180222141232 59 7 1.0 6.0 0.00 0.00 0.00 26 1001.1
20180222140242 59 16 2.0 8.0 0.00 0.00 0.00 27 1001.1
20180222135232 58 274 4.0 11.0 0.00 0.00 0.00 31 1001.2
20180222134247 59 133 3.0 8.0 0.00 0.00 0.00 32 1001.4
20180222133232 58 280 4.0 10.0 0.00 0.00 0.00 33 1001.4
20180222132240 58 346 3.0 8.0 0.00 0.00 0.00 33 1001.5
20180222131250 58 359 6.0 8.0 0.00 0.00 0.00 34 1001.8
20180222130239 57 3 2.0 8.0 0.00 0.00 0.00 35 1001.8
20180222125233 57 34 5.0 10.0 0.00 0.00 0.00 35 1001.9
20180222124243 58 360 5.0 6.0 0.00 0.00 0.00 35 1002.1
20180222123250 58 261 5.0 8.0 0.00 0.00 0.00 36 1002.1
20180222122241 58 295 1.0 5.0 0.00 0.00 0.00 35 1002.4
20180222121249 58 323 2.0 7.0 0.00 0.00 0.00 35 1002.6
20180222120239 58 175 1.0 5.0 0.00 0.00 0.00 35 1002.6
20180222115252 57 234 1.0 9.0 0.00 0.00 0.00 36 1003.0
20180222114242 57 253 3.0 6.0 0.00 0.00 0.00 35 1003.1
20180222113245 55 68 1.0 3.0 0.00 0.00 0.00 36 1003.1
20180222112236 54 76 2.0 4.0 0.00 0.00 0.00 37 1003.3
20180222111246 54 347 2.0 5.0 0.00 0.00 0.00 37 1003.5
20180222110242 55 287 1.0 5.0 0.00 0.00 0.00 36 1003.5
20180222105245 54 254 2.0 8.0 0.00 0.00 0.00 37 1003.8
20180222104234 55 185 0.0 3.0 0.00 0.00 0.00 35 1003.9
20180222103244 53 330 1.0 6.0 0.00 0.00 0.00 35 1003.9
20180222102234 52 209 0.0 5.0 0.00 0.00 0.00 36 1004.0
20180222101249 52 1 3.0 5.0 0.00 0.00 0.00 36 1004.1
20180222100238 51 162 1.0 5.0 0.00 0.00 0.00 41 1004.1
20180222095248 50 319 3.0 6.0 0.00 0.00 0.00 43 1004.3
20180222094241 50 288 2.0 8.0 0.00 0.00 0.00 43 1004.4
20180222093250 50 17 1.0 6.0 0.00 0.00 0.00 44 1004.4
20180222092237 50 272 3.0 7.0 0.00 0.00 0.00 45 1004.5
20180222091247 50 234 2.0 6.0 0.00 0.00 0.00 48 1004.5
20180222090242 49 280 3.0 6.0 0.00 0.00 0.00 49 1004.5
20180222085247 48 298 3.0 5.0 0.00 0.00 0.00 52 1004.5
20180222084250 47 281 1.0 7.0 0.00 0.00 0.00 55 1004.6
20180222083238 47 226 2.0 6.0 0.00 0.00 0.00 60 1004.6
20180222082233 46 260 2.0 6.0 0.00 0.00 0.00 64 1004.7
20180222081243 45 244 4.0 7.0 0.00 0.00 0.00 68 1004.6
20180222080233 45 224 3.0 7.0 0.00 0.00 0.00 73 1004.6
20180222075246 45 243 2.0 6.0 0.00 0.00 0.00 75 1004.5
20180222074237 45 257 1.0 5.0 0.00 0.00 0.00 78 1004.5
20180222073233 44 203 2.0 5.0 0.00 0.00 0.00 80 1004.5
20180222072239 43 237 3.0 5.0 0.00 0.00 0.00 81 1004.6
20180222071230 43 199 2.0 5.0 0.00 0.00 0.00 81 1004.6
20180222070246 43 240 2.0 3.0 0.00 0.00 0.00 81 1004.6
20180222065250 43 237 2.0 4.0 0.00 0.00 0.00 80 1004.4
20180222064243 43 241 1.0 2.0 0.00 0.00 0.00 80 1004.5
20180222063233 44 227 2.0 3.0 0.00 0.00 0.00 81 1004.5
20180222062244 43 188 1.0 2.0 0.00 0.00 0.00 81 1004.5
20180222061237 44 184 1.0 2.0 0.00 0.00 0.00 81 1004.5
20180222060245 44 200 0.0 2.0 0.00 0.00 0.00 81 1004.5
20180222055238 44 234 1.0 3.0 0.00 0.00 0.00 81 1004.6
20180222054249 44 232 2.0 3.0 0.00 0.00 0.00 80 1004.5
20180222053239 44 260 2.0 6.0 0.00 0.00 0.00 80 1004.5
20180222052249 44 280 3.0 5.0 0.00 0.00 0.00 80 1004.3
20180222051237 44 202 2.0 5.0 0.00 0.00 0.00 80 1004.4
20180222050232 44 227 4.0 6.0 0.00 0.00 0.00 80 1004.4
20180222045245 45 222 2.0 3.0 0.00 0.00 0.00 80 1004.3
20180222044252 45 213 1.0 3.0 0.00 0.00 0.00 80 1004.2
20180222043241 45 233 3.0 5.0 0.00 0.00 0.00 80 1004.2
20180222042232 45 258 2.0 4.0 0.00 0.00 0.00 80 1004.2
20180222041247 46 223 1.0 3.0 0.00 0.00 0.00 80 1004.2
20180222040235 46 234 3.0 3.0 0.00 0.00 0.00 79 1004.2
20180222035245 46 215 1.0 4.0 0.00 0.00 0.00 79 1004.3
20180222034234 46 241 2.0 5.0 0.00 0.00 0.00 78 1004.4
20180222033245 46 223 2.0 5.0 0.00 0.00 0.00 78 1004.4
20180222032238 47 193 2.0 5.0 0.00 0.00 0.00 78 1004.5
20180222031246 47 258 2.0 5.0 0.00 0.00 0.00 77 1004.6
20180222030239 47 199 0.0 3.0 0.00 0.00 0.00 77 1004.6
20180222025243 48 199 1.0 5.0 0.00 0.00 0.00 76 1004.6
20180222024234 48 209 1.0 3.0 0.00 0.00 0.00 76 1004.7
20180222023241 48 227 2.0 5.0 0.00 0.00 0.00 76 1004.7
20180222022235 48 226 1.0 3.0 0.00 0.00 0.00 76 1004.7
20180222021245 48 215 1.0 3.0 0.00 0.00 0.00 76 1004.9
20180222020236 49 240 2.0 3.0 0.00 0.00 0.00 75 1004.9
20180222015245 49 220 2.0 3.0 0.00 0.00 0.00 75 1005.0
20180222014235 49 205 1.0 5.0 0.00 0.00 0.00 75 1005.1
20180222013250 49 213 1.0 3.0 0.00 0.00 0.00 75 1005.1
20180222012238 49 268 0.0 3.0 0.00 0.00 0.00 75 1005.4
20180222011249 49 233 1.0 3.0 0.00 0.00 0.00 74 1005.5
20180222010241 49 254 1.0 3.0 0.00 0.00 0.00 74 1005.5
20180222005248 50 236 2.0 6.0 0.00 0.00 0.00 73 1005.6
20180222004242 50 263 2.0 5.0 0.00 0.00 0.00 73 1005.7
20180222003235 50 272 1.0 5.0 0.00 0.00 0.00 73 1005.7
20180222002248 50 301 0.0 3.0 0.00 0.00 0.00 73 1005.7
20180222001237 50 295 0.0 3.0 0.00 0.00 0.00 73 1005.6
20180222000247 50 278 1.0 2.0 0.00 0.00 0.00 73 1005.6
20180221235240 50 360 0.0 2.0 0.00 0.00 0.00 73 1005.6
20180221234251 50 360 1.0 2.0 0.00 0.00 0.00 72 1005.4
20180221233240 50 360 1.0 2.0 0.00 0.00 0.00 72 1005.4
20180221232250 50 360 1.0 2.0 0.00 0.00 0.00 72 1005.5
20180221231240 50 55 1.0 3.0 0.00 0.00 0.00 72 1005.6
20180221230239 50 41 2.0 3.0 0.00 0.00 0.00 71 1005.6
20180221225240 50 8 1.0 3.0 0.00 0.00 0.00 70 1005.6
20180221224250 51 30 0.0 1.0 0.00 0.00 0.00 69 1005.6
20180221223240 50 64 0.0 2.0 0.00 0.00 0.00 69 1005.6
20180221222247 50 68 0.0 2.0 0.00 0.00 0.00 69 1005.6
20180221221246 50 68 0.0 2.0 0.00 0.00 0.00 69 1005.6
20180221220235 50 78 0.0 5.0 0.00 0.00 0.00 69 1005.6
20180221215246 50 68 4.0 6.0 0.00 0.00 0.00 69 1005.4
20180221214236 50 73 1.0 4.0 0.00 0.00 0.00 68 1005.3
20180221213239 50 69 1.0 8.0 0.00 0.00 0.00 68 1005.3
20180221212242 51 106 5.0 7.0 0.00 0.00 0.00 68 1005.1
20180221211234 51 117 2.0 8.0 0.00 0.00 0.00 69 1005.1
20180221210237 51 85 5.0 8.0 0.00 0.00 0.00 69 1005.1
20180221205244 51 88 6.0 11.0 0.00 0.00 0.00 70 1005.1
20180221204251 51 85 3.0 11.0 0.00 0.00 0.00 70 1004.9
20180221203240 51 100 6.0 10.0 0.00 0.00 0.00 69 1004.9
20180221202230 51 126 6.0 14.0 0.00 0.00 0.00 68 1004.6
20180221201241 52 85 8.0 13.0 0.00 0.00 0.00 67 1004.5
20180221200251 52 97 5.0 11.0 0.00 0.00 0.00 66 1004.5
20180221195240 52 80 7.0 16.0 0.00 0.00 0.00 67 1004.3
20180221194250 52 62 4.0 11.0 0.00 0.00 0.00 67 1004.2
20180221193244 52 79 5.0 17.0 0.00 0.00 0.00 67 1004.2
20180221192234 52 40 7.0 12.0 0.00 0.00 0.00 68 1004.0
20180221191243 53 99 6.0 11.0 0.00 0.00 0.00 70 1003.8
20180221190256 53 112 2.0 10.0 0.00 0.00 0.00 70 1003.8
20180221185240 53 288 1.0 8.0 0.00 0.00 0.00 71 1003.6
20180221184237 53 93 4.0 11.0 0.00 0.00 0.00 71 1003.3
20180221183247 54 127 3.0 11.0 0.00 0.00 0.00 71 1003.3
20180221182238 54 100 8.0 14.0 0.00 0.00 0.00 69 1003.0
20180221181249 54 76 5.0 13.0 0.00 0.00 0.00 69 1002.6
20180221180238 55 62 7.0 12.0 0.00 0.00 0.00 66 1002.6
20180221175247 55 76 6.0 17.0 0.00 0.00 0.00 64 1002.5
20180221174239 56 79 5.0 14.0 0.00 0.00 0.00 63 1002.3
20180221173249 56 145 7.0 13.0 0.00 0.00 0.00 58 1002.3
20180221172238 56 85 3.0 12.0 0.00 0.00 0.00 56 1002.2
20180221171247 56 23 4.0 13.0 0.00 0.00 0.00 57 1001.9
20180221170237 56 92 7.0 13.0 0.00 0.00 0.00 56 1001.9
20180221165250 57 265 4.0 14.0 0.00 0.00 0.00 55 1001.8
20180221164236 57 88 6.0 17.0 0.00 0.00 0.00 50 1001.4
20180221163246 57 71 8.0 17.0 0.00 0.00 0.00 45 1001.4
20180221162237 58 107 11.0 20.0 0.00 0.00 0.00 41 1001.2
20180221161245 58 93 11.0 22.0 0.00 0.00 0.00 40 1000.9
20180221160237 61 55 9.0 18.0 0.00 0.00 0.00 33 1000.9
20180221155248 61 37 1.0 5.0 0.00 0.00 0.00 30 1000.6
20180221154239 61 76 4.0 8.0 0.00 0.00 0.00 30 1000.5
20180221153248 61 37 4.0 7.0 0.00 0.00 0.00 30 1000.5
20180221152237 61 25 7.0 10.0 0.00 0.00 0.00 30 1000.6
20180221151230 61 353 3.0 6.0 0.00 0.00 0.00 29 1000.6
20180221150244 61 3 3.0 6.0 0.00 0.00 0.00 30 1000.6
20180221145247 60 8 3.0 4.0 0.00 0.00 0.00 32 1000.6